{"data":{"norad_id":46027,"epoch":"2026-05-25T03:38:47.017248Z","epoch_age_seconds":65351,"freshness":"FRESH","line1":"1 46027U 20055A   26145.15193307  .00022900  00000+0  13171-2 0  9995","line2":"2 46027  53.0622 140.9272 0003146  10.4954 349.6103 15.12386549320444","mean_motion":15.12386549,"eccentricity":0.0003146,"inclination_deg":53.0622,"raan_deg":140.9272,"arg_perigee_deg":10.4954,"mean_anomaly_deg":349.6103,"bstar":0.0013171,"rev_number":32044,"period_min":95.213753451599,"perigee_km":526.75123548844,"apogee_km":531.09715839356,"semimajor_km":6907.061196941,"source":"CELESTRAK","updated_at":"2026-05-25T13:38:16.458096Z"}}